Date,TemperatureHighF,TemperatureAvgF,TemperatureLowF,DewpointHighF,DewpointAvgF,DewpointLowF,HumidityHigh,HumidityAvg,HumidityLow,PressureMaxIn,PressureMinIn,WindSpeedMaxMPH,WindSpeedAvgMPH,GustSpeedMaxMPH,PrecipitationSumIn
2013-1-5,59.2,49.9,43.3,40.9,38.5,36.6,89,66,45,30.20,30.01,10,4,12,0.07
2013-1-6,49.1,43.7,41.7,44.6,41.6,39.1,96,92,82,30.09,30.01,14,4,15,0.43
2013-1-7,51.3,41.7,35.6,42.8,38.3,33.0,97,88,68,30.19,30.04,8,3,11,0.00
2013-1-8,59.4,46.7,38.1,44.1,40.1,36.8,95,79,50,30.18,30.09,7,2,8,0.00
2013-1-9,56.3,46.4,40.1,45.6,40.9,33.2,91,81,65,30.11,29.90,21,4,22,0.00
2013-1-10,49.1,40.0,33.4,36.1,30.6,25.5,89,70,42,30.07,29.95,24,5,24,0.00
2013-1-11,49.3,39.2,30.4,33.7,26.7,22.3,90,63,36,30.16,30.04,13,4,13,0.00
2013-1-12,50.2,39.7,30.2,29.4,24.3,15.4,72,55,31,30.16,30.06,8,3,8,0.00
2013-1-13,47.5,37.0,30.2,30.2,23.7,19.0,76,59,35,30.16,30.06,14,4,14,0.00
2013-1-14,48.7,34.3,27.3,27.3,22.0,17.3,76,62,35,30.32,30.10,8,3,8,0.00
2013-1-15,54.1,40.9,0.0,34.4,29.4,25.4,85,58,34,30.41,30.32,7,2,7,0.00
2013-1-16,62.6,47.3,34.5,36.6,31.8,16.6,84,58,17,30.36,30.21,9,2,9,0.00
2013-1-17,68.7,50.8,37.6,38.4,33.9,24.9,78,56,23,30.22,30.11,6,2,6,0.00
2013-1-18,68.9,52.9,43.5,40.6,31.9,13.2,70,47,14,30.18,30.08,7,2,7,0.00
2013-1-19,69.1,53.7,43.9,38.4,31.4,13.7,67,45,16,30.20,30.11,8,2,8,0.00
2013-1-20,65.8,52.8,44.2,37.3,30.8,18.6,66,45,20,30.18,30.08,8,2,8,0.00
2013-1-21,70.7,53.1,42.1,37.7,30.3,17.1,69,44,15,30.14,30.06,6,2,6,0.00
2013-1-22,73.2,55.2,42.8,42.5,33.0,21.6,72,45,17,30.16,29.98,8,3,8,0.00
2013-1-23,68.4,58.1,48.4,44.1,27.3,13.4,85,34,14,30.03,29.95,12,3,12,0.00
2013-1-24,56.8,53.4,50.2,53.2,48.2,40.7,99,83,55,30.13,29.99,5,2,5,0.07
2013-1-25,63.5,54.6,51.8,58.9,53.8,51.5,99,97,82,30.12,29.98,9,3,9,0.01
2013-1-26,60.3,51.8,41.9,53.3,47.4,37.1,99,86,62,29.99,29.90,16,4,16,0.01
2013-1-27,53.4,47.4,38.5,40.2,35.6,31.6,87,65,48,30.06,29.93,17,5,17,0.00
2013-1-28,52.5,44.0,34.5,37.3,33.4,28.1,89,68,39,30.17,30.01,14,4,14,0.00
2013-1-29,56.7,47.8,39.6,43.7,34.7,30.8,94,62,41,30.24,29.88,22,6,22,0.00
2013-1-30,63.0,49.4,39.0,41.7,38.5,19.5,89,68,41,30.30,30.00,9,2,9,0.00
2013-1-31,69.8,53.3,42.8,46.1,41.9,27.8,86,67,40,30.23,30.07,8,2,8,0.00
2013-2-1,71.6,55.8,45.7,47.2,40.9,26.9,82,60,28,30.27,29.95,8,2,8,0.00
2013-2-2,65.1,54.5,48.9,49.3,41.0,30.2,83,62,30,30.22,29.97,6,2,6,0.00
2013-2-3,64.0,51.7,44.4,47.2,43.6,37.3,90,75,51,30.15,30.05,12,4,12,0.00
2013-2-4,69.1,53.7,43.2,47.6,43.6,38.9,95,71,41,30.11,29.99,9,3,9,0.00
2013-2-5,58.3,49.3,44.4,47.3,43.0,37.7,90,79,65,30.08,29.96,14,5,14,0.00
2013-2-6,60.6,47.5,38.3,45.2,41.1,37.6,99,80,47,30.11,30.01,11,3,11,0.00
2013-2-7,54.1,44.9,39.2,44.6,39.9,35.4,99,83,57,30.11,29.92,14,3,14,0.01
2013-2-8,51.4,42.9,37.0,41.2,35.5,30.2,94,76,51,29.92,29.84,19,5,19,0.00
2013-2-9,55.8,42.7,33.8,40.4,32.9,27.0,84,69,45,30.03,29.85,11,3,11,0.00
2013-2-10,56.5,45.1,36.0,38.7,34.7,31.8,87,69,45,30.04,29.95,11,3,11,0.00
2013-2-11,59.7,46.6,35.6,37.0,33.6,29.6,91,64,34,30.18,29.99,9,3,9,0.00
2013-2-12,62.4,49.6,39.4,36.6,33.6,28.7,78,56,29,30.30,30.18,9,3,9,0.00
2013-2-13,63.9,50.9,40.6,41.2,36.5,33.8,79,59,37,30.26,30.15,10,3,10,0.00
2013-2-14,70.2,54.2,41.9,43.8,39.5,35.4,80,60,30,30.19,30.10,11,3,11,0.00
2013-2-15,73.4,57.8,46.4,44.1,37.6,26.9,75,49,25,30.23,30.16,9,3,9,0.00
2013-2-16,71.6,58.7,49.3,44.6,36.2,22.5,74,45,23,30.21,29.98,8,3,8,0.00
2013-2-17,67.1,54.9,45.9,49.0,39.9,28.8,73,57,40,29.98,29.89,11,3,11,0.00
2013-2-18,62.2,50.6,43.9,45.2,38.6,33.4,81,64,43,30.14,29.84,20,5,20,0.00
2013-2-19,46.0,44.6,34.0,36.4,34.8,33.2,97,68,66,30.14,29.67,5,5,8,0.01
2013-2-20,52.0,43.1,39.2,38.0,36.4,31.9,85,77,63,28.99,28.75,7,3,7,0.00
2013-2-21,57.9,45.9,34.7,40.5,34.3,28.2,94,67,39,28.94,28.81,19,4,19,0.00
2013-2-22,61.5,48.6,37.0,41.2,36.3,32.6,87,64,36,29.02,28.94,9,3,9,0.00
2013-2-23,58.5,49.4,42.6,45.3,32.8,9.9,94,57,21,29.02,28.87,26,8,26,0.00
2013-2-24,62.1,47.9,36.3,33.7,25.2,13.5,68,42,17,29.04,28.90,17,4,17,0.00
2013-2-25,63.9,52.0,41.2,38.6,33.7,23.2,74,52,30,29.06,28.83,14,4,14,0.00
2013-2-26,64.2,49.8,40.8,37.4,28.8,13.2,66,48,14,28.99,28.90,17,5,17,0.00
2013-2-27,68.5,46.3,42.8,39.0,27.9,24.6,66,49,31,29.15,28.99,6,5,8,0.00
2013-2-28,69.3,56.8,45.9,43.8,34.2,24.6,62,43,24,29.21,29.07,14,4,14,0.00
2013-3-1,75.2,60.5,48.4,48.5,42.2,36.0,68,53,32,29.21,29.04,8,3,8,0.00
2013-3-2,76.5,63.6,44.1,48.5,43.1,33.4,66,49,27,29.06,28.84,8,3,8,0.00
2013-3-3,68.0,58.0,50.9,50.1,46.4,39.9,79,66,43,28.89,28.80,13,4,13,0.02
2013-3-4,67.8,53.3,45.5,50.5,45.0,41.1,87,74,45,28.90,28.81,10,3,10,0.00
2013-3-5,68.7,55.5,42.4,48.7,42.1,25.8,92,63,25,28.84,28.66,11,4,11,0.00
2013-3-6,58.3,49.5,44.2,46.9,40.8,36.2,94,73,55,28.88,28.72,19,5,19,0.25
2013-3-7,60.4,49.1,43.3,43.3,39.1,36.1,95,69,47,28.78,28.64,11,3,11,0.01
2013-3-8,63.0,49.9,41.0,46.0,39.4,30.5,96,70,33,28.82,28.58,17,6,17,0.00
2013-3-9,64.4,52.9,41.4,45.4,36.6,25.1,89,59,24,29.09,28.82,22,7,22,0.00
2013-3-10,67.5,54.0,40.1,44.3,40.5,35.7,86,62,39,29.14,29.03,9,3,9,0.00
2013-3-11,72.3,57.5,44.1,47.2,41.1,33.4,82,58,26,29.06,28.90,11,3,11,0.00
2013-3-12,77.9,65.9,44.1,51.3,47.8,33.4,75,53,35,28.99,28.85,11,4,11,0.00
2013-3-13,81.5,66.9,55.4,52.0,46.3,36.3,73,51,21,28.98,28.86,9,3,9,0.00
2013-3-14,82.2,69.0,59.2,52.5,46.0,34.2,67,45,23,28.94,28.69,14,4,14,0.00
2013-3-15,74.8,64.2,53.4,53.2,49.3,44.2,83,60,36,28.90,28.81,14,5,14,0.00
2013-3-16,75.6,63.2,52.2,52.2,42.5,30.5,78,50,21,28.86,28.79,21,5,21,0.00
2013-3-17,70.2,59.4,50.0,43.2,36.5,25.6,68,45,21,28.90,28.81,18,6,18,0.00
2013-3-18,72.9,60.4,48.2,43.9,37.9,28.4,65,45,22,28.89,28.81,10,4,10,0.00
2013-3-19,75.2,64.1,51.6,44.2,37.7,24.7,65,40,18,28.91,28.84,11,4,11,0.00
2013-3-20,72.7,61.1,50.0,55.5,46.9,35.0,94,64,30,28.91,28.85,12,5,14,0.05
2013-3-21,67.1,54.6,46.4,51.7,43.7,28.0,92,69,39,28.90,28.76,21,8,21,0.00
2013-3-22,63.9,53.1,40.8,37.1,23.6,4.3,81,38,10,28.84,28.75,24,8,24,0.00
2013-3-23,67.6,54.0,39.6,35.5,28.5,14.9,69,40,16,28.92,28.82,11,4,11,0.07
2013-3-24,73.8,59.9,44.8,39.9,33.6,27.1,64,39,19,28.89,28.75,13,3,13,0.00
2013-3-25,76.8,61.2,50.5,44.6,39.7,34.6,74,47,24,28.80,28.69,14,4,14,0.00
2013-3-26,73.9,58.6,46.9,46.5,42.1,38.3,81,57,30,28.78,28.70,14,5,14,0.00
2013-3-27,74.3,56.6,44.1,50.1,42.1,33.4,79,60,36,28.99,28.72,13,5,13,0.00
2013-3-28,59.2,51.3,44.1,49.4,43.2,33.4,79,74,66,28.99,28.83,5,4,8,0.00
2013-3-29,75.0,67.7,59.2,49.4,45.6,42.4,70,49,31,28.89,28.86,3,3,3,0.00
2013-3-30,81.9,71.0,56.7,52.1,45.3,41.1,72,42,25,28.89,28.74,18,5,18,0.00
2013-3-31,73.2,59.0,51.8,56.2,50.3,41.3,99,76,38,28.90,28.76,22,4,22,0.50
2013-4-1,71.4,58.3,50.2,52.5,48.4,44.9,95,72,43,28.94,28.85,12,3,12,0.01
2013-4-2,70.9,59.5,48.9,53.7,49.3,45.9,94,71,46,28.95,28.85,17,5,17,0.00
2013-4-3,80.6,64.7,51.4,54.9,49.4,37.9,92,62,25,28.92,28.78,8,2,8,0.00
2013-4-4,71.1,59.5,49.1,58.1,53.5,48.0,98,81,59,28.92,28.77,19,4,19,0.28
2013-4-5,68.4,57.2,50.7,51.7,48.9,45.9,96,75,46,28.95,28.89,14,6,15,0.00
2013-4-6,69.4,57.4,49.6,53.4,49.6,46.6,92,77,51,28.97,28.90,15,6,15,0.00
2013-4-7,71.4,60.2,50.7,53.4,49.0,44.0,89,68,46,28.94,28.74,13,5,13,0.00
2013-4-8,64.8,55.8,43.3,49.5,34.9,25.1,99,50,26,28.75,28.54,30,10,30,0.04
2013-4-9,70.5,59.8,48.2,32.3,26.8,6.3,44,29,10,28.84,28.73,35,14,35,0.02
2013-4-10,79.3,66.6,49.3,50.1,37.3,6.4,57,36,10,28.98,28.80,22,4,22,0.00
2013-4-11,75.4,64.7,52.0,53.0,46.4,35.8,84,54,32,28.82,28.60,17,6,17,0.00
2013-4-12,80.6,65.5,50.2,51.5,44.2,36.8,83,49,21,28.87,28.61,12,4,13,0.00
2013-4-13,77.4,66.2,55.2,50.7,44.9,37.1,65,47,28,28.76,28.58,12,5,13,0.00
2013-4-14,72.9,59.7,48.4,45.7,36.8,10.1,82,50,10,28.67,28.58,20,7,20,0.00
2013-4-15,64.0,53.3,46.2,46.1,40.1,29.9,92,63,34,28.68,28.59,20,6,20,0.00
2013-4-16,64.8,52.9,39.2,43.6,25.9,2.4,90,46,10,28.82,28.67,34,14,34,0.05
2013-4-17,66.6,56.9,44.6,26.4,14.0,5.9,43,20,10,28.98,28.81,36,18,36,0.05
2013-4-18,76.6,61.9,45.5,30.5,21.8,10.9,45,23,10,29.07,28.97,10,3,10,0.00
2013-4-19,81.9,66.7,50.5,42.9,34.2,22.0,57,34,12,29.04,28.85,14,4,14,0.00
2013-4-20,80.4,69.7,54.5,48.0,34.8,13.5,62,32,10,28.88,28.76,17,5,17,0.00
2013-4-21,86.7,72.3,57.0,43.7,33.8,20.2,48,27,10,28.83,28.74,13,4,13,0.00
2013-4-22,85.5,73.9,60.8,48.2,35.8,18.8,50,28,10,28.78,28.64,18,5,18,0.00
2013-4-23,86.5,73.5,62.1,40.7,20.6,6.4,25,14,10,28.72,28.63,11,4,11,0.00
2013-4-24,78.3,63.1,57.7,44.8,32.9,25.3,46,32,24,28.67,28.62,7,2,7,0.00
2013-4-25,77.7,64.4,54.3,47.6,46.3,43.7,75,54,32,28.89,28.80,14,7,14,0.00
2013-4-26,84.0,66.9,50.2,48.0,42.1,25.5,78,46,13,28.99,28.88,14,4,14,0.00
2013-4-27,85.1,67.6,58.3,49.4,44.3,39.1,63,45,24,28.99,28.95,8,3,10,0.00
2013-4-28,90.5,80.7,61.0,48.6,39.4,25.4,63,25,10,28.82,28.67,14,6,14,0.00
2013-4-29,90.9,77.4,63.5,52.5,39.7,21.0,59,31,10,28.70,28.54,17,5,17,0.00
2013-4-30,84.0,71.9,60.1,49.0,31.6,7.7,65,28,10,28.62,28.53,19,6,19,0.00
2013-5-1,89.2,74.2,58.8,37.6,18.7,5.0,31,13,10,28.89,28.60,13,4,13,0.00
2013-5-2,92.8,79.7,67.6,28.4,18.6,9.2,14,10,10,28.97,28.87,13,4,13,0.00
2013-5-3,91.9,75.2,63.0,41.5,27.3,16.1,37,19,10,28.89,28.60,14,3,14,0.00
2013-5-4,91.2,77.2,61.0,43.0,30.3,14.5,44,20,10,28.61,28.34,16,4,16,0.00
2013-5-5,78.6,65.4,50.9,49.2,39.4,19.5,84,41,15,28.63,28.38,16,4,16,0.00
2013-5-6,78.8,64.0,56.3,54.6,45.1,35.0,91,54,21,28.76,28.62,14,3,14,0.08
2013-5-7,71.6,59.4,52.5,55.7,52.0,49.0,94,78,47,28.84,28.76,12,3,12,0.13
2013-5-8,77.9,64.8,56.7,52.9,48.2,43.3,84,58,33,28.90,28.81,14,4,15,0.00
2013-5-9,81.3,66.1,50.5,54.0,50.6,47.2,92,60,34,28.92,28.82,17,6,17,0.00
2013-5-10,87.6,71.9,54.0,55.7,51.6,47.9,84,51,30,28.94,28.85,14,5,14,0.00
2013-5-11,96.1,80.4,62.8,55.2,50.5,42.0,67,39,17,28.91,28.82,13,4,13,0.06
2013-5-12,97.0,82.0,68.4,54.4,38.9,24.8,55,26,10,28.92,28.80,16,5,16,0.00
2013-5-13,97.3,80.4,66.2,53.6,36.4,24.3,55,25,10,28.86,28.71,16,5,16,0.00
2013-5-14,88.9,75.1,61.5,52.4,46.1,27.0,69,40,11,28.75,28.66,17,5,17,0.00
2013-5-15,83.7,68.1,57.2,46.8,40.7,23.4,63,41,12,28.82,28.74,14,6,17,0.00
2013-5-16,74.7,60.6,52.7,58.0,48.8,44.3,89,66,40,28.82,28.72,15,5,15,0.11
2013-5-17,78.6,62.1,48.2,49.2,39.1,14.5,89,51,11,28.86,28.75,18,6,18,0.00
2013-5-18,82.6,65.7,48.6,47.4,38.8,17.7,78,44,10,29.92,28.82,18,6,18,0.00
2013-5-19,78.1,62.9,56.3,49.7,47.9,36.9,75,60,23,29.89,29.77,20,4,21,0.00
2013-5-20,92.5,78.1,62.2,49.5,29.1,15.9,63,20,10,29.91,29.73,13,5,20,1.83
2013-5-21,90.9,69.2,53.6,49.5,33.6,16.6,68,32,10,29.83,29.68,21,6,21,0.00
2013-5-22,91.8,58.1,45.9,47.6,22.8,4.9,76,33,10,29.82,26.67,23,8,23,0.00
2013-5-23,91.8,60.3,45.3,42.2,31.0,7.0,76,41,10,29.83,28.67,20,6,20,0.00
2013-5-24,89.4,66.5,50.2,42.1,30.4,7.5,66,32,10,29.80,29.68,17,4,17,0.00
2013-5-25,81.9,65.0,49.5,43.1,35.0,10.1,68,38,10,29.83,29.70,15,5,15,0.00
2013-5-26,82.4,65.1,49.3,49.7,44.6,9.4,86,52,10,29.89,29.71,17,6,17,0.00
2013-5-27,73.6,66.2,57.4,54.0,47.5,38.8,80,53,29,29.92,29.77,16,7,16,0.00
2013-5-28,78.6,65.8,55.8,56.1,51.2,44.6,92,64,31,29.82,29.68,18,6,18,0.00
2013-5-29,81.9,68.1,58.1,52.5,47.3,33.7,72,50,18,29.76,29.67,19,7,19,0.00
2013-5-30,86.7,70.2,53.6,50.8,42.8,24.3,77,43,12,29.77,29.71,18,7,18,0.00
2013-5-31,91.8,73.0,60.1,44.2,36.1,18.8,54,31,10,29.79,29.70,13,4,13,0.00
2013-6-1,98.6,82.3,65.8,49.4,35.8,22.3,48,22,10,29.75,29.58,17,4,17,0.00
2013-6-2,100.6,85.0,70.0,48.5,40.1,30.5,42,23,10,29.60,29.45,14,4,14,0.02
2013-6-3,96.1,78.5,64.6,50.1,46.1,38.2,54,35,15,29.70,28.51,17,7,17,0.00
2013-6-4,89.6,73.8,60.3,50.4,47.3,44.2,61,41,23,29.73,28.60,20,8,20,0.00
2013-6-5,92.7,75.1,54.0,54.3,49.0,43.0,85,45,19,29.77,29.66,13,5,13,0.00
2013-6-6,97.3,80.2,64.6,58.4,50.9,41.2,63,40,15,29.73,29.61,13,5,13,0.00
2013-6-7,104.7,84.2,67.5,60.4,52.0,35.4,61,37,10,29.97,29.53,19,5,19,0.05
2013-6-8,109.9,87.4,70.0,59.1,48.7,35.7,48,30,10,29.70,29.47,18,6,18,0.00
2013-6-9,91.9,77.8,60.8,57.2,51.7,46.5,76,43,21,29.69,29.55,21,7,21,0.00
2013-6-10,81.5,67.7,54.7,54.1,49.2,33.2,89,57,18,29.76,29.62,16,5,16,0.00
2013-6-11,89.6,72.8,54.7,54.7,49.6,38.8,88,50,17,29.79,29.68,14,5,14,0.00
2013-6-12,91.6,75.8,63.3,52.2,37.5,20.4,63,32,10,29.79,29.71,14,5,16,0.00
2013-6-13,87.4,72.0,53.2,43.8,32.8,12.7,62,29,10,29.88,29.78,17,6,17,0.00
2013-6-14,91.4,75.7,59.7,47.0,29.9,15.5,45,22,10,29.78,29.63,14,5,14,0.02
2013-6-15,90.9,71.4,62.1,49.4,41.0,22.6,50,36,10,29.76,29.65,14,6,14,0.03
2013-6-16,91.4,74.9,58.5,45.7,36.4,24.1,57,29,10,30.00,29.64,25,8,25,0.00
2013-6-17,87.3,72.6,58.8,52.6,39.5,18.1,71,36,10,29.96,29.79,23,8,23,0.00
2013-6-18,79.9,65.3,52.9,52.5,45.4,29.8,88,54,17,29.93,29.79,21,7,21,0.00
2013-6-19,82.8,65.6,50.0,48.4,36.0,11.0,89,45,10,29.93,29.86,20,7,20,0.00
2013-6-20,86.7,71.3,55.8,47.7,37.8,20.4,71,36,10,29.89,29.81,17,7,17,0.00
2013-6-21,90.3,69.9,56.8,46.9,36.9,18.8,62,35,10,29.86,29.78,17,6,17,0.00
2013-6-22,95.0,78.8,62.1,44.1,34.6,22.3,49,23,10,29.83,29.72,21,6,21,0.00
2013-6-23,79.0,69.3,61.2,59.1,51.1,32.6,80,54,27,29.78,29.71,21,6,21,0.01
2013-6-24,77.0,66.6,62.4,64.8,60.1,56.3,99,81,53,29.84,29.70,9,3,14,0.17
2013-6-25,89.4,74.0,63.5,64.8,60.9,52.8,96,68,31,29.91,29.81,14,4,14,0.00
2013-6-26,94.6,77.9,61.5,66.7,59.5,48.1,99,60,21,29.95,29.87,15,5,15,0.00
2013-6-27,98.1,82.1,66.2,63.4,55.5,34.5,80,45,11,29.98,29.91,14,6,14,0.00
2013-6-28,105.4,90.4,56.5,59.8,50.2,35.2,75,29,10,29.95,28.70,17,6,17,0.00
2013-6-29,108.3,93.0,77.5,56.0,47.7,31.0,45,24,10,30.07,29.67,21,6,21,0.00
2013-6-30,108.3,93.6,77.9,55.4,46.3,37.5,43,22,10,29.76,29.66,17,5,17,0.00
2013-7-1,109.6,93.9,75.6,51.9,43.0,32.7,42,20,10,29.91,29.70,16,6,16,0.00
2013-7-2,109.8,94.9,81.3,59.5,49.2,35.1,39,23,10,30.13,29.72,15,4,15,0.00
2013-7-3,107.1,92.1,75.9,61.7,50.6,37.7,44,27,10,29.81,29.66,14,5,14,0.00
2013-7-4,108.5,94.1,80.1,60.6,53.1,43.5,50,27,12,29.67,29.57,20,5,20,0.00
2013-7-5,99.1,84.9,70.0,52.5,39.9,27.0,53,24,10,29.67,29.59,14,6,14,0.00
2013-7-6,99.5,79.9,65.8,55.3,46.6,28.4,61,37,10,29.70,29.62,10,4,10,0.00
2013-7-7,102.4,84.7,65.8,51.8,39.4,24.9,60,25,10,29.75,29.67,11,4,11,0.00
2013-7-8,102.9,83.3,67.5,36.8,31.3,22.6,32,17,10,29.88,26.73,11,4,11,0.00
2013-7-9,107.8,89.2,67.8,45.0,33.7,15.1,43,16,10,29.94,29.83,14,5,14,0.00
2013-7-10,105.3,89.5,76.3,37.7,31.6,19.2,24,13,10,29.87,29.77,17,5,17,0.00
2013-7-11,97.3,81.1,65.3,46.3,29.9,13.3,42,18,10,29.84,26.74,15,6,15,0.00
2013-7-12,99.3,80.7,65.7,49.9,37.2,25.4,45,25,10,29.84,26.81,14,4,15,0.00
2013-7-13,98.1,87.8,68.4,40.8,33.4,25.6,34,17,10,29.87,29.81,8,3,8,0.00
2013-7-14,100.9,86.5,74.7,40.3,34.3,21.6,28,17,10,29.88,29.77,13,7,13,0.00
2013-7-15,93.0,78.6,47.1,48.6,26.4,12.7,80,17,10,30.21,29.69,14,6,14,0.00
2013-7-16,90.3,69.1,53.2,54.2,48.4,27.8,91,54,12,30.05,29.74,21,6,21,0.00
2013-7-17,92.5,69.5,54.9,55.8,47.8,24.7,92,56,10,29.97,29.90,14,6,14,0.00
2013-7-18,100.2,83.0,64.9,48.2,37.8,23.2,49,24,10,29.94,29.81,18,6,18,0.00
2013-7-19,102.7,87.1,69.4,46.1,35.0,28.7,30,17,10,29.84,29.70,17,6,17,0.00
2013-7-20,103.8,88.5,72.5,53.4,39.7,29.4,41,20,10,29.75,29.61,14,4,14,0.00
2013-7-21,104.0,89.7,76.6,52.8,40.3,27.9,41,20,10,29.77,29.66,14,5,14,0.00
2013-7-22,98.8,81.6,67.5,53.2,43.0,27.0,52,28,10,29.86,29.75,17,6,21,0.00
2013-7-23,90.0,79.4,70.9,48.5,29.6,15.5,41,19,10,29.93,29.82,15,6,16,0.00
2013-7-24,102.6,86.1,69.6,49.8,34.7,22.2,35,17,10,29.90,29.77,18,7,18,0.00
2013-7-25,102.9,88.2,72.0,53.3,44.9,36.6,43,24,11,29.92,29.82,16,6,16,0.01
2013-7-26,97.5,88.9,73.6,44.5,36.2,29.6,34,17,10,29.97,29.90,14,4,14,0.00
2013-7-27,98.4,86.3,77.5,35.2,26.3,21.0,12,11,10,29.94,29.78,8,5,11,0.00
2013-7-28,98.6,88.2,71.2,50.0,41.8,32.6,47,25,10,29.78,29.68,12,6,12,0.00
2013-7-29,96.8,83.8,62.6,53.9,41.4,25.4,62,28,10,29.89,29.69,11,5,11,0.00
2013-7-30,95.2,78.3,57.7,55.1,44.2,28.4,80,36,10,29.98,29.87,19,6,19,0.00
2013-7-31,95.0,80.1,65.3,51.1,36.1,19.3,52,25,10,29.96,29.86,16,5,16,0.00
2013-8-1,92.1,77.5,61.3,42.4,32.5,19.3,46,23,10,30.00,29.83,16,6,17,0.00
2013-8-2,96.4,78.4,61.3,48.1,37.5,24.1,55,28,10,29.87,29.77,14,5,14,0.00
2013-8-3,98.6,81.1,65.1,51.2,38.3,25.5,50,27,10,29.86,29.78,11,4,11,0.00
2013-8-4,93.4,82.4,65.5,50.3,41.4,26.0,49,27,10,29.88,29.83,13,4,13,0.00
2013-8-5,95.9,81.6,62.1,47.1,37.4,25.8,54,24,10,29.90,29.80,16,6,16,0.00
2013-8-6,91.8,75.5,61.3,54.4,43.6,27.3,77,37,10,29.91,29.83,16,6,18,0.00
2013-8-7,86.5,70.0,54.9,57.5,52.2,42.1,99,60,23,29.98,29.90,15,7,15,0.00
2013-8-8,90.7,71.4,56.1,56.5,48.9,24.3,91,52,10,29.93,29.75,15,6,15,0.00
2013-8-9,90.0,74.6,55.2,54.0,46.1,25.5,86,42,10,29.86,29.80,14,5,14,0.00
2013-8-10,85.8,76.0,55.8,56.4,51.0,43.7,89,45,25,29.92,29.85,11,5,14,0.00
2013-8-11,93.2,71.8,62.6,53.5,48.3,27.7,72,51,10,29.91,29.81,16,6,16,0.00
2013-8-12,95.7,79.9,63.1,49.1,37.3,25.4,54,26,10,29.89,28.70,14,5,14,0.00
2013-8-13,99.9,83.0,66.9,43.8,33.6,20.6,40,20,10,29.90,29.80,14,5,14,0.00
2013-8-14,100.0,83.5,66.6,47.0,36.4,26.2,38,21,10,29.88,29.78,15,5,15,0.00
2013-8-15,100.6,83.4,66.4,57.4,42.9,26.2,59,29,10,29.88,29.80,14,5,14,0.00
2013-8-16,101.8,84.3,66.6,59.5,48.1,29.4,73,36,10,29.88,29.82,20,7,20,0.00
2013-8-17,98.6,86.6,72.5,46.3,32.8,15.7,35,16,10,29.89,29.83,13,8,13,0.00
2013-8-18,104.4,94.3,83.8,51.1,37.1,32.9,32,14,10,29.88,29.69,13,8,13,0.01
2013-8-19,107.1,90.7,76.8,58.5,45.1,33.7,39,24,10,29.83,29.68,20,5,20,0.00
2013-8-20,100.6,90.7,73.9,54.5,46.1,38.1,46,24,12,29.79,29.72,14,5,14,0.00
2013-8-21,99.5,85.8,69.3,51.0,39.0,26.9,50,21,10,29.82,29.73,14,5,14,0.01
2013-8-22,95.9,79.5,64.8,52.5,41.2,28.2,58,29,10,29.84,29.75,16,7,16,0.00
2013-8-23,93.4,76.5,58.8,50.8,44.0,29.2,69,36,11,29.82,29.69,14,5,14,0.00
2013-8-24,93.2,77.1,64.4,54.9,44.0,27.8,64,36,10,29.80,29.73,17,5,17,0.04
2013-8-25,94.5,75.9,61.3,59.3,53.2,34.0,87,51,12,29.85,29.76,14,5,14,0.00
2013-8-26,93.2,76.5,60.8,56.8,49.8,39.8,78,43,17,29.90,26.77,17,6,17,0.00
2013-8-27,96.3,78.9,63.7,51.2,45.1,30.8,61,34,10,29.82,29.69,21,5,21,0.00
2013-8-28,93.2,81.8,63.3,54.8,44.2,35.4,71,32,14,29.82,29.75,15,6,15,0.00
2013-8-29,95.7,82.2,67.3,58.1,48.1,28.4,68,36,10,29.94,29.81,15,7,16,0.00
2013-8-30,100.4,83.6,65.5,58.6,45.6,26.0,76,35,10,29.95,29.81,14,5,14,0.00
2013-8-31,100.2,89.2,71.2,51.2,38.6,30.8,43,21,10,29.88,29.78,11,5,11,0.00
2013-9-1,98.8,98.8,98.8,32.8,32.8,32.8,10,10,10,29.78,29.78,7,7,11,0.00
2013-9-2,98.8,98.8,98.8,32.8,32.8,32.8,10,10,10,29.78,29.78,7,7,11,0.00
2013-9-3,98.8,81.6,63.9,55.3,45.2,32.8,73,33,10,29.90,29.78,16,7,16,0.00
2013-9-4,92.1,75.4,61.9,55.3,48.8,36.6,72,44,17,29.93,29.82,17,7,17,0.00
2013-9-5,91.4,75.1,59.7,54.7,44.0,22.8,78,41,10,29.91,29.83,15,6,15,0.00
2013-9-6,96.8,78.8,61.0,51.6,39.3,26.4,66,31,10,29.90,29.75,14,4,14,0.00
2013-9-7,99.7,89.5,71.1,44.6,36.9,29.0,36,17,11,29.82,29.77,11,2,11,0.00
2013-9-8,102.7,99.6,97.0,35.9,34.7,31.5,11,10,10,29.77,29.67,18,7,18,0.00
2013-9-9,100.4,93.7,74.5,42.0,33.5,24.8,24,13,10,29.77,29.59,17,9,17,0.00
2013-9-10,97.5,81.3,65.3,56.5,41.7,27.4,72,29,10,29.77,29.60,15,4,15,0.00
2013-9-11,99.3,70.7,59.0,58.9,55.7,30.9,95,64,10,29.89,29.65,16,6,16,0.00
2013-9-12,97.3,77.6,57.6,62.6,55.3,31.2,99,54,10,29.88,29.69,11,4,11,0.00
2013-9-13,92.1,83.1,67.8,57.2,53.6,48.3,68,39,23,29.85,29.75,8,4,8,0.00
2013-9-14,93.6,76.0,68.7,54.4,47.9,42.9,52,39,18,29.75,26.61,14,5,14,0.00
2013-9-15,72.9,70.8,64.0,48.9,42.7,40.3,56,37,31,29.73,29.67,11,4,11,0.00
2013-9-16,72.9,31.7,0.0,41.3,41.3,41.3,32,14,32,29.73,29.73,4,2,8,0.00
2013-9-17,84.2,69.7,59.7,53.9,48.7,27.9,81,53,13,29.77,28.56,14,6,15,0.08
2013-9-18,87.3,70.1,59.5,60.3,43.8,20.2,74,46,10,29.95,29.72,15,6,15,0.15
2013-9-19,94.8,76.6,60.4,41.6,33.6,23.4,47,25,10,29.80,29.67,9,3,9,0.00
2013-9-20,87.3,74.0,61.0,57.6,38.7,18.9,84,33,10,29.77,29.67,17,5,17,0.00
2013-9-21,72.0,60.5,53.8,59.9,55.1,46.2,97,83,41,29.82,29.71,22,3,22,0.13
2013-9-22,80.6,60.7,49.3,58.1,51.0,30.3,99,74,16,29.90,29.68,17,4,17,0.13
2013-9-23,84.7,68.4,54.7,55.2,41.3,26.6,87,45,12,29.94,29.67,9,3,9,0.13
2013-9-24,84.7,71.8,56.5,57.0,44.2,26.6,81,42,12,29.91,29.67,17,5,17,0.26
2013-9-25,72.5,60.4,50.4,50.3,43.8,30.5,90,59,25,29.83,26.80,20,6,20,0.00
2013-9-26,73.8,61.0,45.9,45.0,34.3,17.3,79,42,12,29.88,29.69,21,6,21,0.00
2013-9-27,79.2,64.9,52.0,39.7,27.8,14.3,58,28,10,30.01,29.87,12,3,14,0.00
2013-9-28,87.1,69.7,56.5,37.0,26.7,11.8,41,23,10,30.03,29.68,10,3,10,0.13
2013-9-29,85.6,69.4,57.2,57.6,42.0,20.9,86,41,15,30.03,29.93,15,4,15,0.00
2013-9-30,81.5,68.4,58.3,59.0,55.3,46.8,91,66,33,30.00,29.86,15,5,15,0.00
2013-10-1,79.5,66.5,54.7,58.4,46.6,35.9,95,53,30,29.92,29.82,11,4,11,0.00
2013-10-2,84.7,67.7,56.1,50.2,39.2,22.3,71,40,12,29.90,29.67,16,4,16,0.13
2013-10-3,74.3,62.1,50.0,43.5,30.0,11.2,71,36,10,29.92,29.81,23,6,23,0.00
2013-10-4,97.3,66.2,50.0,29.5,19.5,9.9,39,19,10,30.05,29.81,14,3,14,0.00
2013-10-5,86.9,70.6,57.6,58.0,17.0,7.7,91,14,10,30.14,29.83,12,3,17,0.02
2013-10-6,89.4,72.3,57.7,57.7,20.4,11.0,82,15,10,30.10,29.67,17,3,17,0.15
2013-10-7,88.0,73.2,59.5,58.0,18.9,11.4,91,13,10,30.07,29.78,13,4,13,0.02
2013-10-8,87.3,67.7,57.6,57.7,22.5,11.8,93,19,10,30.13,29.60,14,4,14,0.00
2013-10-9,86.7,58.6,51.3,57.1,41.2,10.8,78,54,10,30.08,29.51,13,4,13,0.00
2013-10-10,86.2,60.7,48.0,51.4,41.0,10.0,83,53,10,30.12,29.51,13,3,13,0.15
2013-10-11,83.5,64.2,49.6,57.8,39.6,15.2,94,43,10,30.14,29.53,15,4,15,0.00
2013-10-12,86.2,62.9,50.9,58.0,39.7,14.7,76,47,10,30.14,29.64,10,3,11,0.00
2013-10-13,73.2,62.0,48.7,43.2,37.9,31.1,73,43,23,29.95,29.81,11,5,11,0.00
2013-10-14,79.5,68.3,53.2,47.0,31.6,18.0,58,27,16,30.03,29.83,12,4,12,0.00
2013-10-15,82.6,67.4,55.8,57.8,28.7,12.7,88,26,10,30.13,29.53,12,3,12,0.02
2013-10-16,86.0,70.3,58.6,57.3,25.1,16.0,86,20,10,30.07,29.59,10,3,10,0.00
2013-10-17,81.7,69.0,57.4,31.8,24.3,14.8,36,21,10,30.00,29.88,17,4,17,0.00
2013-10-18,88.3,70.3,50.0,43.4,25.2,11.8,78,21,10,30.13,29.55,10,2,10,0.00
2013-10-19,87.4,72.0,51.6,55.3,24.7,15.4,74,19,10,30.07,29.53,10,3,11,0.02
2013-10-20,84.9,71.0,50.0,50.2,23.9,13.8,80,18,10,30.06,29.51,11,3,11,0.00
2013-10-21,87.1,70.2,64.0,33.9,28.7,18.2,32,22,10,29.91,29.81,8,1,8,0.00
2013-10-22,88.5,73.4,63.1,33.8,20.7,6.3,32,15,10,29.94,26.81,8,3,8,0.00
2013-10-23,84.7,71.8,60.3,37.0,26.0,12.1,31,19,10,29.88,29.67,8,3,8,0.00
2013-10-24,98.1,71.4,56.8,45.7,37.0,26.6,65,32,10,29.98,29.67,11,4,11,0.18
2013-10-25,80.8,64.7,49.6,44.9,39.3,24.6,73,44,14,30.08,29.98,9,3,9,0.00
2013-10-26,84.0,68.4,56.1,42.2,34.0,20.0,54,32,10,30.06,29.91,10,3,10,0.00
2013-10-27,81.9,64.2,50.4,45.3,33.8,18.8,78,38,10,29.93,29.58,22,4,22,0.00
2013-10-28,68.4,53.6,48.2,47.9,42.7,36.9,88,68,33,29.79,29.58,15,3,15,0.00
2013-10-29,66.4,55.6,49.8,46.2,42.9,38.5,81,64,37,29.94,29.79,11,3,11,0.00
2013-10-30,91.4,55.8,45.5,43.6,38.9,33.9,83,56,19,30.05,29.93,15,3,15,0.00
2013-10-31,74.8,58.6,45.5,44.7,39.1,34.6,80,52,24,30.10,29.98,7,2,7,0.00
2013-11-1,81.9,63.6,50.4,42.8,34.8,18.0,65,40,10,30.09,29.93,8,2,8,0.00
2013-11-2,80.1,65.1,54.9,47.5,33.2,20.5,70,34,11,29.95,29.79,14,3,14,0.00
2013-11-3,62.6,53.4,46.4,48.5,31.9,19.8,88,48,22,29.91,29.80,17,6,17,0.00
2013-11-4,67.6,55.1,42.1,31.9,24.0,11.0,58,33,11,29.95,29.78,25,6,25,0.00
2013-11-5,70.3,55.4,43.0,33.9,28.4,20.4,59,38,15,30.17,29.94,10,2,10,0.00
2013-11-6,84.7,65.3,49.1,37.0,31.4,13.3,54,32,10,30.20,29.67,8,3,8,0.00
2013-11-7,84.7,68.5,56.7,37.0,24.1,12.2,32,20,10,30.09,29.67,10,3,10,0.18
2013-11-8,78.3,63.8,52.7,41.7,30.4,12.1,61,31,10,30.00,29.86,7,2,8,0.00
2013-11-9,84.7,63.2,52.3,41.2,33.1,18.0,61,35,12,29.96,29.67,8,2,8,0.18
2013-11-10,80.8,64.3,55.0,41.2,30.3,17.3,54,31,10,30.03,29.95,11,3,11,0.00
2013-11-11,78.3,63.3,53.6,40.0,27.4,12.8,53,29,10,30.09,29.99,9,3,9,0.00
2013-11-12,75.6,64.3,58.6,36.4,31.0,17.5,43,30,13,30.18,30.06,11,4,11,0.00
2013-11-13,76.8,62.9,50.5,39.9,33.9,28.2,58,36,17,30.15,29.99,12,3,12,0.00
2013-11-14,73.0,60.5,51.6,45.3,38.6,30.7,76,46,23,30.04,29.75,9,2,9,0.00
2013-11-15,67.6,55.0,45.0,45.1,37.5,28.9,88,55,29,29.76,26.68,12,4,12,0.00
2013-11-16,64.9,58.1,46.4,41.9,37.2,32.7,75,48,34,29.77,29.68,11,5,11,0.00
2013-11-17,80.6,60.9,46.8,44.5,40.3,30.3,79,49,27,30.00,29.68,8,4,10,0.18
2013-11-18,84.7,56.9,47.7,45.0,40.8,26.6,83,60,12,30.05,29.67,10,3,10,0.18
2013-11-19,68.7,55.9,48.6,52.1,46.5,43.5,99,73,42,30.01,29.88,13,3,13,0.14
2013-11-20,57.9,52.8,50.4,57.1,52.5,50.1,99,99,93,29.91,29.76,8,2,8,1.26
2013-11-21,59.5,51.6,48.7,53.1,45.0,23.2,99,83,29,29.86,29.77,14,4,14,0.01
2013-11-22,58.8,47.8,41.0,51.1,45.5,26.7,99,92,68,29.91,29.82,10,2,10,0.00
2013-11-23,66.4,51.7,42.4,51.1,44.2,41.1,99,79,42,30.03,29.89,8,2,8,0.01
2013-11-24,66.4,53.1,43.7,45.0,42.0,38.1,87,68,39,30.16,30.02,8,2,8,0.00
2013-11-25,68.5,54.2,44.6,44.3,40.9,31.7,81,63,27,30.24,30.16,8,2,8,0.05
2013-11-26,69.3,53.5,44.4,45.8,43.0,40.6,88,70,39,30.19,29.97,7,2,7,0.00
2013-11-27,75.7,59.3,48.6,46.2,36.9,25.1,86,46,16,29.98,29.76,9,2,9,0.00
2013-11-28,72.3,64.4,54.5,41.2,37.1,32.8,49,37,24,29.88,29.80,8,3,9,0.00
2013-11-29,84.7,71.7,59.0,39.1,36.4,26.6,47,28,12,30.06,29.67,6,3,8,0.00
2013-11-30,70.7,70.7,70.7,36.0,36.0,36.0,28,28,28,29.70,29.70,2,2,6,0.00
2013-12-1,70.7,62.9,50.2,43.8,39.0,36.0,74,45,28,30.17,29.70,8,2,8,1.74
2013-12-2,88.0,57.2,48.0,47.9,42.1,24.7,87,60,28,30.16,29.68,11,3,11,0.00
2013-12-3,51.6,46.7,38.3,50.5,36.4,18.8,99,70,37,29.86,29.71,17,4,17,0.05
2013-12-4,80.6,43.8,31.8,37.0,25.3,14.4,68,52,16,29.95,29.68,8,3,8,0.00
2013-12-5,80.6,41.6,22.9,37.0,21.3,11.2,82,48,16,30.06,29.68,11,3,13,1.78
2013-12-6,75.6,47.9,23.1,32.7,24.1,16.8,89,44,16,30.09,29.68,14,3,14,0.00
2013-12-7,79.7,68.4,27.4,32.7,30.6,22.7,99,25,12,30.08,29.67,6,3,6,0.00
2013-12-8,79.7,61.5,26.6,32.7,28.0,16.7,78,31,12,30.17,29.67,9,3,10,2.35
2013-12-9,75.6,46.1,22.5,32.7,27.1,20.3,94,54,16,30.32,29.68,7,2,7,2.35
2013-12-10,81.7,48.2,28.5,34.4,28.3,21.8,92,54,12,30.32,29.67,9,2,9,0.00
2013-12-11,81.7,63.0,31.0,36.5,31.1,24.2,89,34,12,30.17,29.67,6,2,6,2.35
2013-12-12,77.6,66.2,36.7,34.4,31.0,22.2,68,28,16,30.16,29.68,8,3,8,2.35
2013-12-13,77.6,52.5,37.3,34.4,28.2,21.2,73,42,16,30.24,29.68,11,3,11,2.35
2013-12-14,61.8,45.0,34.8,33.0,29.0,22.5,77,56,23,30.31,30.15,7,2,7,0.00
2013-12-15,63.6,46.4,38.7,35.8,29.2,23.6,73,54,23,30.27,30.15,7,2,8,0.05
2013-12-16,69.5,50.5,38.7,38.4,32.4,26.3,73,52,22,30.24,30.05,8,2,8,0.05
2013-12-17,71.5,50.4,38.7,40.5,33.2,26.3,73,53,26,30.24,29.98,5,2,5,0.00
2013-12-18,68.1,50.7,38.7,40.5,35.6,26.5,79,58,30,30.24,29.64,9,3,14,0.05
2013-12-19,54.7,44.7,38.7,42.7,35.5,22.3,95,72,33,30.24,29.59,16,4,16,0.00
2013-12-20,52.8,43.1,32.2,37.8,31.8,26.3,90,65,47,30.27,29.65,8,2,8,0.05
2013-12-21,56.2,43.2,34.6,42.3,33.7,26.3,98,72,45,30.24,29.87,12,3,12,0.00
2013-12-22,62.7,47.9,38.7,37.4,32.3,26.3,75,56,33,30.24,30.11,8,2,8,0.05
2013-12-23,66.1,48.5,38.7,39.7,32.5,26.3,75,56,28,30.31,30.15,8,2,8,0.00
2013-12-24,63.7,47.4,38.7,39.6,31.9,26.3,74,57,33,30.24,30.12,6,3,8,0.05
2013-12-25,73.6,51.5,38.7,37.1,30.9,12.5,74,50,11,30.24,30.10,4,2,4,0.05
2013-12-26,69.7,51.7,45.7,37.4,33.3,26.6,63,50,21,30.17,30.08,6,1,6,0.00
2013-12-27,62.4,50.3,42.9,36.9,29.6,16.1,65,46,19,30.16,30.02,9,2,10,0.00
2013-12-28,62.4,48.3,39.7,33.7,28.9,24.1,73,49,26,30.24,29.93,9,2,9,0.00
2013-12-29,59.0,51.7,39.7,35.3,31.5,27.3,73,48,37,30.24,30.08,6,4,6,0.05
2013-12-30,65.5,53.3,41.8,32.6,24.3,7.1,49,34,10,30.17,30.08,6,2,7,0.00
2013-12-31,64.6,48.4,27.0,29.6,24.3,10.8,99,41,12,30.24,30.03,132,2,132,0.05
2014-1-1,65.5,50.2,38.3,33.1,26.0,14.9,56,41,15,30.13,30.04,8,2,8,0.00
2014-1-2,71.8,54.9,46.4,36.8,33.3,30.0,58,45,22,30.10,29.97,6,2,6,0.00